Location: Bonaustraße
(48.4603°N, 11.9280°E)
Time: 06:03:44
(UTC+02:00)

STRAND 1 - Pass Details

Date: 03 August 2021
Orbit: 768 x 781 km, 98.4° (Epoch: 26 September)

Event Time Altitude Azimuth Distance (km) Brightness Sun altitude
Rises 22:01:49 0° 3° (N) 3,255 ? -11.1°
Reaches altitude 10° 22:04:36 10° 349° (NNW) 2,322 ? -11.4°
Maximum altitude 22:08:22 21° 301° (WNW) 1,665 ? -11.9°
Drops below altitude 10° 22:12:08 10° 253° (WSW) 2,309 ? -12.3°
Sets 22:14:55 0° 238° (WSW) 3,231 ? -12.6°
